Location: Cherry Springs State Park
(41.6616°N, 77.8240°W)
Time: 19:48:07
(UTC-04:00)

Daily predictions for brighter satellites

Satellite Brightness Start Highest point End
(mag) Time Altitude Azimuth Time Altitude Azimuth Time Altitude Azimuth
Okean 2 3.7 20:16:35 10° N 20:20:38 46° ENE 20:24:37 10° SSE
Cosmos 1975 4.4 20:19:07 10° SE 20:21:51 17° E 20:24:36 10° NE
Cosmos 968 Rocket 4.0 20:17:38 10° NNW 20:22:44 65° WSW 20:27:47 10° S
Meteor 2-4 Rocket 3.9 20:16:57 10° N 20:22:49 80° E 20:28:45 10° SSE
NOSS 2-1 (D) 3.3 20:20:05 10° SSW 20:23:56 86° SE 20:28:19 10° NE
Cosmos 1697 Rocket 4.2 20:21:29 10° SE 20:24:21 14° E 20:27:13 10° ENE
Helios 1A 3.7 20:20:29 10° S 20:24:35 59° W 20:28:45 10° NNW
NOSS 2-1 (C) 3.3 20:21:08 10° SSW 20:24:58 86° SE 20:29:21 10° NE
Cosmos 2123 Rocket 4.3 20:19:13 10° N 20:25:11 48° ENE 20:31:07 10° SSE
Cosmos 2278 4.1 20:20:48 10° S 20:26:06 42° ESE 20:31:25 10° NE
Meteor 2-15 4.5 20:22:30 10° N 20:28:32 62° E 20:34:30 10° SSE
Lacrosse 5 rocket 2.3 20:27:00 10° NNW 20:30:21 29° NE 20:33:34 10° E
H-2A R/B 4.0 20:30:20 10° E 20:31:49 12° ENE 20:33:18 10° NE
Cosmos 1315 Rocket 3.7 20:28:16 10° SSW 20:32:11 54° WNW 20:36:12 10° N
ERS-1 Rocket 4.0 20:28:31 10° ESE 20:32:40 27° ENE 20:36:50 10° N
ALOS 2.3 20:28:21 10° SSE 20:33:00 72° ENE 20:37:40 10° N
Meteor 2-14 Rocket 4.5 20:26:56 10° S 20:33:01 69° E 20:39:08 10° NNE
Cosmos 1892 Rocket 3.6 20:28:47 10° N 20:33:17 77° E 20:37:46 10° SSE
Cosmos 1025 Rocket 3.6 20:30:16 10° NNW 20:34:36 63° W 20:38:51 10° S
Cosmos 1455 Rocket 3.1 20:34:43 10° S 20:38:58 58° E 20:43:15 10° NNE
H-2A R/B 2.8 20:35:26 10° SSE 20:39:17 67° ENE 20:43:11 10° N
Cosmos 2369 3.9 20:33:57 10° S 20:39:21 48° ESE 20:44:49 10° NE
Resurs 1-3 4.4 20:35:05 10° S 20:39:23 55° W 20:43:43 10° NNW
NOSS 2-1 (E) 3.7 20:37:05 10° SW 20:40:59 72° NW 20:45:31 10° NNE
Cosmos 1461 3.1 20:37:14 10° NNW 20:41:14 50° NE 20:44:43 12° SE
Meteor 1-23 Rocket 4.5 20:36:56 10° NNW 20:42:35 76° W 20:48:15 10° S
Cosmos 1602 Rocket 4.3 20:38:44 10° N 20:42:49 34° ENE 20:46:50 10° SE
Cosmos 1980 Rocket 3.8 20:45:16 12° ESE 20:46:29 13° E 20:48:57 10° ENE
Cosmos 1939 Rocket 3.9 20:51:42 15° ESE 20:54:26 30° ENE 20:58:05 10° N
CZ-2D R/B 3.6 20:52:13 10° S 20:56:03 67° W 20:59:57 10° NNW
Lacrosse 5 3.2 20:52:05 10° NNW 20:56:28 29° NNE 21:00:15 13° E
Resurs 01 Rocket 3.8 20:52:46 10° SSW 20:56:34 28° W 21:00:24 10° NW
Cosmos 1934 Rocket 4.1 20:50:47 10° S 20:56:54 82° W 21:03:09 10° N
Cosmos 2084 4.5 20:59:57 10° NNW 21:03:33 30° NE 21:05:46 19° E
SPOT 5 4.1 21:02:06 17° ESE 21:04:38 26° ENE 21:08:37 10° NNE
Cosmos 220 Rocket 4.1 21:03:07 10° N 21:07:15 52° ENE 21:09:49 21° SE
Cosmos 1346 Rocket 3.5 21:06:39 10° NNW 21:10:31 55° W 21:14:24 10° S
Cosmos 2227 Rocket 2.3 21:07:31 10° NNW 21:13:13 81° WSW 21:18:21 13° SSE
USA 186 2.9 21:11:04 10° S 21:14:02 40° W 21:16:51 10° NNW
Tiangong 1 1.2 21:11:54 10° W 21:15:00 69° N 21:16:25 28° ENE
OTV 4 1.5 21:13:31 10° WSW 21:16:11 30° SSW 21:16:45 27° S
Cosmos 1656 3.7 21:15:08 10° S 21:20:39 60° ESE 21:26:08 10° NNE
Cosmos 1500 3.3 21:18:30 21° SSE 21:20:45 50° E 21:24:24 10° NNE
NOSS 3-4 (A) 4.3 21:14:14 10° NW 21:21:10 61° WSW 21:28:01 12° SSE
RESURS DK-1 3.6 21:17:41 10° N 21:21:15 27° ENE 21:22:21 24° E
NOSS 3-4 (C) 4.2 21:14:20 10° NW 21:21:17 61° WSW 21:28:06 12° SSE
BREEZE-M TANK 3.4 21:10:18 10° WNW 21:22:45 82° NNE 21:24:54 27° ESE
Cosmos 2298 Rocket 4.1 21:20:13 10° NNW 21:25:31 62° ENE 21:28:25 26° SE
Cosmos 2082 4.0 21:21:02 10° NNW 21:26:37 68° WSW 21:31:16 15° S
CZ-4 DEB 2.9 21:26:40 25° S 21:28:18 68° WSW 21:31:27 10° NNW
Cosmos 2297 Rocket 2.2 21:23:13 10° NNW 21:28:54 84° WSW 21:32:48 21° SSE
Cosmos 1340 3.7 21:31:45 10° NNE 21:34:56 29° ENE 21:34:56 29° ENE
Envisat 2.9 21:34:13 24° SSE 21:37:19 81° ENE 21:42:26 10° N
Cosmos 2173 Rocket 4.1 21:32:57 14° SSE 21:38:22 59° E 21:44:35 10° NNE
H-2A R/B 3.8 21:39:12 15° ENE 21:39:35 16° ENE 21:42:27 10° NNE
Milstar 3 Cent rocket 4.4 21:19:37 10° WSW 21:39:39 47° S 21:45:56 26° SE
Cosmos 1726 Rocket 4.5 21:42:20 30° ENE 21:42:20 30° ENE 21:45:38 10° NNE
Cosmos 1937 Rocket 3.7 21:36:39 10° NNW 21:41:51 57° ENE 21:43:40 37° SE
Cosmos 1515 4.0 21:39:20 10° NNW 21:43:10 67° W 21:44:57 29° S
Terra 3.9 21:44:44 13° ENE 21:44:44 13° ENE 21:46:57 10° NNE
ASTEX 1 3.7 21:40:47 10° NNE 21:45:35 44° E 21:46:26 41° ESE
OAO 2 Rocket 3.9 21:43:25 10° WSW 21:48:05 38° S 21:48:33 37° SSE
Cosmos 2100 Rocket 3.9 21:42:27 10° S 21:48:42 78° E 21:54:57 10° N
YAOGAN 6 3.1 21:49:35 45° ENE 21:49:35 45° ENE 21:52:53 10° N
Cosmos 2061 Rocket 3.9 21:44:13 15° S 21:49:31 72° E 21:55:46 10° NNE
Cosmos 2150 Rocket 3.9 21:47:12 10° NNW 21:52:22 87° WSW 21:54:22 39° SSE
Iridium 4 Rocket 4.2 21:47:28 10° NNW 21:52:27 50° W 21:56:49 11° SSW
Cosmos 1743 2.6 21:53:16 69° ESE 21:53:26 70° E 21:57:21 10° NNE
Cosmos 1825 Rocket 3.5 21:50:20 10° N 21:54:45 67° E 21:55:22 58° SE
Cosmos 972 Rocket 4.4 21:50:31 10° NNW 21:56:25 83° ENE 21:59:20 35° SSE
MetOp-A 4.1 21:55:02 42° SE 21:56:48 71° ENE 22:02:09 10° N
Cosmos 990 Rocket 4.1 21:52:31 10° NNW 21:57:43 58° ENE 21:58:46 48° ESE
SPOT 1/Viking Rocket 3.9 21:57:13 43° E 21:58:05 47° ENE 22:03:05 10° N
DELTA 2 R/B (1) 3.8 21:53:49 10° W 21:59:16 55° SSW 22:00:25 46° SSE
Cosmos 1066 Rocket 4.4 21:54:28 10° NNW 22:00:06 71° W 22:03:26 26° S
Cosmos 1953 Rocket 3.6 21:59:16 10° N 22:03:41 61° E 22:03:44 61° E
CZ-4B R/B 4.3 21:59:57 10° NNE 22:03:04 31° ENE 22:03:04 31° ENE
H-2A R/B 2.2 22:06:30 51° SSW 22:07:17 63° WSW 22:11:24 10° NNW
Cosmos 1697 Rocket 2.8 22:01:54 10° SSW 22:07:33 78° WNW 22:13:14 10° NNE
Lacrosse 5 rocket 2.4 22:06:16 10° WNW 22:09:24 31° WSW 22:09:24 31° WSW
ERS-1 Rocket 4.3 22:07:44 16° SSW 22:11:17 36° W 22:15:55 10° NNW
SL-16 R/B 4.1 22:15:31 16° ENE 22:15:31 16° ENE 22:16:54 10° NE
Cosmos 1842 4.3 22:10:52 10° N 22:13:33 37° NNE 22:13:33 37° NNE
deb Chang Zheng 4 4.2 22:11:31 10° N 22:15:55 57° WNW 22:18:17 26° SW
NOAA 11 4.2 22:15:11 58° ESE 22:15:55 64° ENE 22:21:21 10° N
Cosmos 1898 Rocket 4.2 22:12:10 10° NNW 22:17:17 50° WSW 22:19:08 34° SSW
Cosmos 1758 Rocket 3.6 22:18:25 10° N 22:22:20 70° N 22:22:20 70° N
Cosmos 1125 Rocket 4.2 22:18:36 10° N 22:23:14 40° ENE 22:23:14 40° ENE
Cosmos 1725 Rocket 3.9 22:22:45 58° SE 22:23:38 65° E 22:29:48 10° NNE
Cosmos 1763 Rocket 3.2 22:24:17 81° SE 22:24:24 81° ESE 22:29:30 10° NNE
Cosmos 1459 Rocket 4.4 22:21:24 14° SSW 22:26:36 57° W 22:32:37 10° N
Cosmos 1980 Rocket 2.1 22:26:52 32° SSW 22:29:38 84° WNW 22:35:23 10° NNE
Meteor 1-15 Rocket 4.2 22:30:17 65° E 22:30:22 65° E 22:36:12 10° NNE
ARGOS 3.0 22:30:52 78° SE 22:31:15 86° ENE 22:36:40 10° NNW
BREEZE-M DEB (TANK) 4.5 22:30:00 10° WNW 22:34:31 84° NNE 22:38:48 41° ESE
Lacrosse 5 2.1 22:34:47 10° NW 22:39:26 64° WSW 22:39:26 64° WSW
SPOT 5 4.1 22:41:21 33° SW 22:42:30 38° W 22:47:05 10° NNW
Cosmos 2058 Rocket 3.7 22:44:37 55° NNW 22:44:37 55° NNW 22:48:17 10° N
Cosmos 841 Rocket 3.5 22:45:04 76° WNW 22:45:06 76° WNW 22:50:21 10° NNE
USA 215 3.3 22:44:53 58° E 22:46:05 70° NE 22:52:34 10° NW
BREEZE-M DEB (TANK) 4.0 22:36:17 10° SW 22:49:06 72° SSE 22:49:08 71° SE
Cosmos 2233 Rocket 4.0 22:51:56 62° ENE 22:51:56 62° ENE 22:57:31 10° NNE
Cosmos 2263 Rocket 3.1 22:53:50 10° N 22:58:15 37° NE 22:58:15 37° NE
RESURS DK-1 4.4 22:55:44 10° NW 22:58:17 24° W 22:58:17 24° W
Cosmos 2322 Rocket 3.2 23:03:22 36° NE 23:03:22 36° NE 23:06:39 10° NNE
H-2A R/B 2.9 23:19:52 46° NW 23:19:52 46° NW 23:23:26 10° NNW
BREEZE-M DEB (TANK) 3.6 23:03:26 10° WNW 23:18:45 81° NNE 23:18:46 81° NNE
Terra 3.1 23:23:37 38° NNW 23:23:37 38° NNW 23:26:36 10° NNW
GEOS 3 Rocket 4.5 23:25:58 10° NNE 23:30:25 46° NNW 23:30:25 46° NNW
